AB8YS Weather Reports


Display with metric or nautical units.
time (UTC)temp
F
wind
direction
speed
MPH
gust
MPH
rain 1hr
in
rain 24hr
in
rain mn
in
humidity
%
barometer
mb
20260510204541 66 39 1.0 8.0 0.00 0.00 0.00 44 1015.6
20260510203040 67 347 0.0 4.0 0.00 0.00 0.00 41 1015.8
20260510201539 67 290 0.0 1.0 0.00 0.00 0.00 41 1016.0
20260510200039 67 255 0.0 3.0 0.00 0.00 0.00 42 1016.1
20260510194537 67 326 0.0 0.0 0.00 0.00 0.00 43 1016.1
20260510193039 69 297 0.0 3.0 0.00 0.00 0.00 41 1016.2
20260510191537 69 273 0.0 3.0 0.00 0.00 0.00 42 1016.2
20260510190038 70 343 0.0 2.0 0.00 0.00 0.00 45 1016.3
20260510184536 69 262 0.0 2.0 0.00 0.00 0.00 49 1016.1
20260510183037 69 330 0.0 3.0 0.00 0.00 0.00 42 1016.1
20260510181545 69 304 0.0 2.0 0.00 0.00 0.00 45 1016.2
20260510180034 68 332 0.0 2.0 0.00 0.00 0.00 46 1016.1
20260510174529 68 70 3.0 8.0 0.00 0.00 0.00 42 1016.0
20260510173028 68 338 0.0 5.0 0.00 0.00 0.00 50 1016.4
20260510171527 67 36 2.0 6.0 0.00 0.00 0.00 44 1015.8
20260510170025 67 299 0.0 3.0 0.00 0.00 0.00 47 1015.8
20260510164527 66 104 0.0 4.0 0.00 0.00 0.00 47 1016.1
20260510163025 67 21 0.0 4.0 0.00 0.00 0.00 53 1015.8
20260510161521 66 354 0.0 5.0 0.00 0.00 0.00 54 1016.2
20260510160020 66 353 1.0 8.0 0.00 0.00 0.00 48 1016.1
20260510154517 65 82 2.0 5.0 0.00 0.00 0.00 43 1016.0
20260510153014 65 359 1.0 6.0 0.00 0.00 0.00 45 1015.8
20260510151511 65 295 0.0 4.0 0.00 0.00 0.00 53 1015.7
20260510150008 64 59 0.0 7.0 0.00 0.00 0.00 53 1015.5
20260510144505 63 37 0.0 5.0 0.00 0.00 0.00 53 1015.4
20260510143003 63 56 1.0 4.0 0.00 0.00 0.00 51 1015.2
20260510141601 62 133 1.0 5.0 0.00 0.00 0.00 52 1015.0
20260510134558 61 72 2.0 7.0 0.00 0.00 0.00 54 1014.5
20260510133053 61 110 0.0 4.0 0.00 0.00 0.00 60 1014.2
20260510131550 60 72 1.0 4.0 0.00 0.00 0.00 63 1013.9
20260510130050 58 60 0.0 6.0 0.00 0.00 0.00 67 1013.8
20260510124556 57 53 1.0 4.0 0.00 0.00 0.00 68 1013.7
20260510123047 56 34 0.0 2.0 0.00 0.00 0.00 73 1013.7
20260510121547 56 101 0.0 1.0 0.00 0.00 0.00 75 1013.4
20260510120043 55 101 0.0 2.0 0.00 0.00 0.00 73 1013.2
20260510114550 55 74 0.0 1.0 0.00 0.00 0.00 74 1013.0
20260510113040 55 75 0.0 1.0 0.00 0.00 0.00 75 1012.8
20260510111540 55 75 0.0 0.0 0.00 0.00 0.00 77 1012.7
20260510110040 55 75 0.0 2.0 0.00 0.00 0.00 75 1012.2
20260510104534 56 19 0.0 0.0 0.00 0.00 0.00 78 1012.2
20260510103034 56 18 0.0 1.0 0.00 0.00 0.00 77 1011.9
20260510101531 56 103 0.0 0.0 0.00 0.00 0.00 80 1011.7
20260510100028 56 115 0.0 0.0 0.00 0.00 0.00 83 1011.5
20260510094540 56 115 0.0 0.0 0.00 0.00 0.00 83 1011.4
20260510093026 57 115 0.0 0.0 0.00 0.00 0.00 85 1011.3
20260510091530 57 115 0.0 1.0 0.00 0.00 0.00 86 1011.0
20260510090022 56 309 0.0 0.0 0.00 0.00 0.00 91 1010.9
20260510084520 56 309 0.0 0.0 0.00 0.00 0.00 91 1010.6
20260510083025 55 309 0.0 0.0 0.00 0.00 0.00 90 1010.4
20260510081515 55 309 0.0 0.0 0.00 0.00 0.00 90 1010.1
20260510080022 56 309 0.0 0.0 0.00 0.00 0.00 88 1009.8
20260510074511 56 309 0.0 0.0 0.00 0.00 0.00 87 1009.3
20260510073017 57 309 0.0 0.0 0.00 0.00 0.00 86 1009.4
20260510071505 58 309 0.0 0.0 0.00 0.00 0.00 84 1009.5
20260510070003 59 309 0.0 0.0 0.00 0.00 0.00 83 1009.5
20260510064605 60 309 0.0 0.0 0.00 0.00 0.00 81 1009.6
20260510063056 60 309 0.0 0.0 0.00 0.00 0.00 80 1009.7
20260510061559 61 309 0.0 0.0 0.00 0.00 0.00 78 1009.8
20260510060055 61 309 0.0 0.0 0.00 0.00 0.00 78 1009.8
20260510054553 61 309 0.0 0.0 0.00 0.00 0.00 78 1009.8
20260510053050 61 266 0.0 0.0 0.00 0.00 0.00 76 1009.5
20260510051600 61 266 0.0 0.0 0.00 0.00 0.00 75 1009.5
20260510050048 61 266 0.0 0.0 0.00 0.00 0.00 74 1009.5
20260510044550 61 266 0.0 0.0 0.00 0.00 0.00 77 1009.4
20260510043045 61 266 0.0 0.0 0.00 0.00 0.00 76 1009.4
20260510041544 61 266 0.0 0.0 0.00 0.00 0.00 77 1009.3
20260510040041 61 266 0.0 0.0 0.00 0.00 0.00 76 1009.0
20260510034541 60 266 0.0 1.0 0.00 0.00 0.00 75 1008.9
20260510033040 60 267 0.0 0.0 0.00 0.00 0.00 75 1009.2
20260510031539 61 267 0.0 0.0 0.00 0.00 0.00 75 1009.2
20260510030050 61 267 0.0 0.0 0.00 0.00 0.00 73 1009.0
20260510024538 62 266 0.0 0.0 0.00 0.00 0.00 71 1008.9
20260510023037 62 267 0.0 0.0 0.00 0.00 0.00 72 1008.8
20260510021537 62 267 0.0 0.0 0.00 0.00 0.00 71 1008.8
20260510020036 63 267 0.0 0.0 0.00 0.00 0.00 69 1008.5
20260510014536 64 267 0.0 0.0 0.00 0.00 0.00 66 1008.2
20260510013035 65 267 0.0 0.0 0.00 0.00 0.00 65 1008.0
20260510011538 66 266 0.0 0.0 0.00 0.00 0.00 64 1007.9
20260510010035 66 266 0.0 0.0 0.00 0.00 0.00 62 1007.6
20260510004535 68 267 0.0 0.0 0.00 0.00 0.00 60 1007.4
20260510003039 69 267 0.0 1.0 0.00 0.00 0.00 58 1007.1
20260510001532 69 266 0.0 1.0 0.00 0.00 0.00 56 1007.0
20260510000031 70 264 0.0 1.0 0.00 0.00 0.00 55 1006.8
20260509234538 70 262 0.0 1.0 0.00 0.00 0.00 55 1006.7
20260509233035 71 264 0.0 2.0 0.00 0.00 0.00 52 1006.4
20260509231533 71 259 0.0 2.0 0.00 0.00 0.00 52 1006.4
20260509230030 71 270 0.0 4.0 0.00 0.00 0.00 53 1006.5
20260509224631 71 260 0.0 2.0 0.00 0.00 0.00 53 1006.4
20260509223030 71 269 0.0 4.0 0.00 0.00 0.00 52 1006.4
20260509221527 71 280 0.0 2.0 0.00 0.00 0.00 52 1006.4
20260509220028 71 269 0.0 4.0 0.00 0.00 0.00 52 1006.4
20260509214526 72 281 0.0 3.0 0.00 0.00 0.00 54 1006.3
20260509213024 71 271 0.0 3.0 0.00 0.00 0.00 52 1006.4
20260509211521 71 264 0.0 4.0 0.00 0.00 0.00 55 1006.5
20260509210021 71 270 0.0 3.0 0.00 0.00 0.00 55 1006.5